Tel Aviv, Israel

6:01 PM IDT on May 27, 2017 (GMT +0300)
Ben Gurion

Weather History for LLBG - October, 2012

Change the Weather History Date:

Monday, October 8, 2012

  Actual Average Record
Temperature  
Mean Temperature 77 °F -  
Max Temperature 84 °F 79 °F 91 °F (2007)
Min Temperature 70 °F 62 °F 57 °F (2013)
Cooling Degree Days 12    
Growing Degree Days 27 (Base 50)    
Moisture  
Dew Point 63 °F    
Average Humidity 61    
Maximum Humidity 78    
Minimum Humidity 37    
Precipitation  
Precipitation 0.00 in - - ()
Sea Level Pressure  
Sea Level Pressure 29.92 in    
Wind  
Wind Speed 5 mph ()    
Max Wind Speed 12 mph    
Max Gust Speed 20 mph    
Visibility 6.2 miles    
Events Rain    
Averages and records for this station are not official NWS values.
T = Trace of Precipitation, MM = Missing Value Source: Averaged Metar Reports

Daily Weather History Graph

Daily Weather History Graph

Search for Another Location

Airport or City:

Trip Planner

Search our weather history database for the weather conditions in past years. The results will help you decide how hot, cold, wet, or windy it might be!

Date:

Astronomy

Oct. 08, 2012 Rise Set
Actual Time 5:39 AM IST 5:16 PM IST
Civil Twilight 5:14 AM IST 5:40 PM IST
Nautical Twilight 4:46 AM IST 6:08 PM IST
Astronomical Twilight 4:17 AM IST 6:37 PM IST
Moon 11:17 PM IST (10/8) 12:29 PM IST (10/8)
Length of Visible Light 12h 26m
Length of Day
11h 37m
Waning Gibbous, 49% of the Moon is Illuminated
Oct 8
Waning Gibbous
Oct 15
New
Oct 22
First Quarter
Oct 29
Full
Nov 7
Last Quarter

Hourly Weather History & Observations

Time (IST) Temp. Heat Index Dew Point Humidity Pressure Visibility Wind Dir Wind Speed Gust Speed Precip Events Conditions
12:50 AM 73.4 °F - 60.8 °F 65% 29.92 in 6.2 mi SSE 2.3 mph - N/A   Partly Cloudy
1:50 AM 71.6 °F - 60.8 °F 69% 29.92 in 6.2 mi SSE 4.6 mph - N/A   Partly Cloudy
2:00 AM 72 °F - 61 °F 59% 29.92 in 6 mi SSE 4.6 mph - -   Scattered Clouds
2:50 AM 71.6 °F - 60.8 °F 69% 29.92 in 6.2 mi ESE 3.5 mph - N/A   Partly Cloudy
3:50 AM 71.6 °F - 60.8 °F 69% 29.92 in 6.2 mi SE 1.2 mph - N/A   Partly Cloudy
4:50 AM 71.6 °F - 60.8 °F 69% 29.92 in 6.2 mi SSE 4.6 mph - N/A   Scattered Clouds
5:50 AM 71.6 °F - 62.6 °F 73% 29.92 in 6.2 mi SE 2.3 mph - N/A   Scattered Clouds
6:50 AM 73.4 °F - 62.6 °F 69% 29.92 in 6.2 mi South 4.6 mph - N/A   Scattered Clouds
7:50 AM 75.2 °F - 64.4 °F 69% 29.95 in 6.2 mi SSE 6.9 mph - N/A   Scattered Clouds
8:00 AM 76 °F - 64 °F 58% 29.95 in 6 mi SSE 6.9 mph - -   Partly Cloudy
8:50 AM 80.6 °F 82.3 °F 64.4 °F 58% 29.95 in 6.2 mi South 8.1 mph - N/A   Scattered Clouds
9:50 AM 77.0 °F - 62.6 °F 61% 29.95 in 6.2 mi West 8.1 mph 19.6 mph N/A Rain Light Rain
10:50 AM 80.6 °F 81.8 °F 62.6 °F 54% 29.95 in 6.2 mi NNW 4.6 mph - N/A   Scattered Clouds
11:50 AM 82.4 °F 83.4 °F 62.6 °F 51% 29.92 in 6.2 mi West 10.4 mph - N/A   Mostly Cloudy
12:50 PM 84.2 °F 85.0 °F 62.6 °F 48% 29.92 in 6.2 mi West 10.4 mph - N/A   Scattered Clouds
1:50 PM 82.4 °F 82.9 °F 60.8 °F 48% 29.89 in 6.2 mi West 10.4 mph - N/A   Scattered Clouds
2:00 PM 83 °F - 61 °F 37% 29.91 in 6 mi West 10.4 mph - -   Partly Cloudy
2:50 PM 82.4 °F 82.9 °F 60.8 °F 48% 29.89 in 6.2 mi WNW 10.4 mph - N/A   Scattered Clouds
3:50 PM 82.4 °F 82.5 °F 59.0 °F 45% 29.89 in 6.2 mi West 11.5 mph - N/A   Scattered Clouds
4:50 PM 78.8 °F - 64.4 °F 61% 29.92 in 6.2 mi WNW 8.1 mph - N/A   Partly Cloudy
5:50 PM 78.8 °F - 64.4 °F 61% 29.92 in 6.2 mi West 4.6 mph - N/A   Scattered Clouds
6:50 PM 78.8 °F - 64.4 °F 61% 29.92 in 6.2 mi West 3.5 mph - N/A   Scattered Clouds
7:50 PM 77.0 °F - 64.4 °F 65% 29.92 in 6.2 mi WSW 3.5 mph - N/A   Partly Cloudy
8:00 PM 77 °F - 64 °F 55% 29.94 in 6 mi WSW 3.5 mph - -   Scattered Clouds
8:50 PM 77.0 °F - 64.4 °F 65% 29.92 in 6.2 mi East 3.5 mph - N/A   Partly Cloudy
9:50 PM 75.2 °F - 64.4 °F 69% 29.95 in 6.2 mi East 4.6 mph - N/A   Mostly Cloudy
10:50 PM 73.4 °F - 66.2 °F 78% 29.92 in 6.2 mi SSE 2.3 mph - N/A   Partly Cloudy
11:50 PM 73.4 °F - 64.4 °F 73% 29.92 in - ESE 4.6 mph - N/A   Clear